sat.trackr.live / text

‹ back to catalog

STARLINK-36465

NORAD 67423 · 2026-005V

PAYLOAD ACTIVE UNKNOWN

§ Identity

Operator
Country
US
Launch date
2026-01-12
Launch site
AFETR
Launch vehicle
Mass (kg)
RCS (m²)

Purposes: comms

External: N2YO · Heavens-Above · Gunter

§ Orbital elements

Epoch: 2026-09-19T14:58:20.112960Z

Period
94.27 min
Inclination
42.9999°
Eccentricity
0.0001366
Mean motion
15.27585004 rev/d
Perigee alt
482.1 km
Apogee alt
484.0 km
Semi-major
6,861.2 km
B*
1.9543e-4
RAAN
222.9677°
Arg perigee
244.6742°
Mean anomaly
115.3968°
Rev number
3,835

§ Raw data

STARLINK-364651 67423U 26005V   26262.62384390  .00005120  00000+0  19543-3 0  99902 67423  42.9999 222.9677 0001366 244.6742 115.3968 15.27585004 38355

JSON: /api/v1/satellites/67423 · /tle

For live sub-satellite position, see the globe view (requires WebGL).

§ Visibility from observer

Set your observer location to see the next 7 days of passes ≥ 10°. The values pass through the URL so the page stays shareable.

No JS? Fill the form by hand. The geolocation button needs JavaScript.